M I D A S
Marine Information and Data Acquisition System
Tripno 920 of the Zeeleeuw from 2005-06-23 06:25:49 to 2005-06-23 12:58:07
Back to CruiseResearch ActivitiesStationsMapUnderway DataData graphs

EquipmentUnitsComments
TimeDGPSUTC
LatitudeDGPSDM.mWGS84
LongitudeDGPSDM.mWGS84
SpeedMeteo Stationm/sRelative wind speed
DirectionMeteo StationdegRelative wind direction
TemperatureMeteo Stationdeg CelciusAir temperature
PressureMeteo StationPaAtmospheric pressure
HumidityMeteo Station%Relative humidity
Missing or incorrect values are displayed as -999
Metereological data collected by the RV Zeeleeuw from 2005-06-23 06:26:53 to 2005-06-23 13:07:03
                                                                                    Next 1000 lines
Time Latitude Longitude Speed Direction Temperature Pressure Humidity
2005-06-23 06:27:02 51°13.646 2°55.992 1.3 8 22.1 101950 58
2005-06-23 06:27:07 51°13.647 2°55.989 0.9 18 22.1 101950 58
2005-06-23 06:27:12 51°13.648 2°55.985 0.6 33 22.1 101950 58
2005-06-23 06:27:18 51°13.65 2°55.98 0.5 35 22 101950 57
2005-06-23 06:27:22 51°13.652 2°55.976 0.5 36 22 101950 57
2005-06-23 06:27:27 51°13.654 2°55.97 0.4 36 22.1 101950 57
2005-06-23 06:27:32 51°13.656 2°55.964 0.3 40 22.1 101950 57
2005-06-23 06:27:38 51°13.659 2°55.957 0.2 66 22 101950 58
2005-06-23 06:27:42 51°13.661 2°55.951 0.3 135 22 101950 58
2005-06-23 06:27:47 51°13.664 2°55.944 0.2 135 22 101950 58
2005-06-23 06:27:53 51°13.666 2°55.935 0.2 88 22 101950 58
2005-06-23 06:27:58 51°13.669 2°55.926 0.1 88 22 101950 58
2005-06-23 06:28:03 51°13.672 2°55.918 0.4 166 22 101950 58
2005-06-23 06:28:07 51°13.674 2°55.909 0.5 163 22.1 101950 58
2005-06-23 06:28:13 51°13.676 2°55.898 0.5 156 22.1 101950 58
2005-06-23 06:28:17 51°13.678 2°55.889 0.5 141 22.1 101960 58
2005-06-23 06:28:22 51°13.68 2°55.879 0.5 141 22.1 101960 58
2005-06-23 06:28:27 51°13.682 2°55.868 0.7 141 22.1 101950 58
2005-06-23 06:28:33 51°13.683 2°55.856 0.8 135 22.1 101950 58
2005-06-23 06:28:38 51°13.685 2°55.845 0.9 135 22.1 101960 58
2005-06-23 06:28:42 51°13.686 2°55.836 1 135 22.1 101960 58
2005-06-23 06:28:47 51°13.687 2°55.824 0.9 134 22.1 101950 58
2005-06-23 06:28:53 51°13.687 2°55.812 1.1 131 22.1 101950 58
2005-06-23 06:28:58 51°13.687 2°55.801 1.2 130 22.1 101950 58
2005-06-23 06:29:03 51°13.687 2°55.791 1.4 128 22.1 101950 58
2005-06-23 06:29:07 51°13.687 2°55.782 1.3 128 22.1 101950 58
2005-06-23 06:29:13 51°13.687 2°55.771 1.2 123 22.1 101950 58
2005-06-23 06:29:18 51°13.687 2°55.764 1.3 115 22.1 101950 58
2005-06-23 06:29:23 51°13.687 2°55.759 1.3 100 22.1 101950 58
2005-06-23 06:29:27 51°13.687 2°55.755 1.2 107 22.1 101950 58
2005-06-23 06:29:32 51°13.687 2°55.751 1.4 99 22.1 101950 58
2005-06-23 06:29:37 51°13.687 2°55.748 1.3 96 22.1 101950 58
2005-06-23 06:29:42 51°13.687 2°55.747 1.1 93 22.1 101950 58
2005-06-23 06:29:46 51°13.687 2°55.746 1.2 88 22 101950 58
2005-06-23 06:29:52 51°13.688 2°55.746 2.1 61 22 101950 58
2005-06-23 06:29:57 51°13.69 2°55.747 2.3 60 22 101950 58
2005-06-23 06:30:02 51°13.692 2°55.749 2.4 74 22 101950 58
2005-06-23 06:30:07 51°13.694 2°55.751 2.3 75 22 101950 58
2005-06-23 06:30:11 51°13.697 2°55.752 2.5 77 22 101950 58
2005-06-23 06:30:15 51°13.7 2°55.754 2.3 77 22 101950 59
2005-06-23 06:30:22 51°13.706 2°55.756 2.5 80 22 101950 59
2005-06-23 06:30:27 51°13.709 2°55.756 2.2 89 22 101950 59
2005-06-23 06:30:32 51°13.712 2°55.757 2.3 106 22 101950 59
2005-06-23 06:30:37 51°13.714 2°55.757 2.3 112 22 101950 59
2005-06-23 06:30:42 51°13.716 2°55.757 2.3 131 22 101950 59
2005-06-23 06:30:47 51°13.716 2°55.757 2.5 139 22 101950 59
2005-06-23 06:30:53 51°13.716 2°55.757 2.5 147 22 101950 59
2005-06-23 06:30:57 51°13.715 2°55.757 2.7 147 21.9 101950 59
2005-06-23 06:31:03 51°13.713 2°55.757 2.3 148 21.9 101950 59
2005-06-23 06:31:07 51°13.712 2°55.758 2.3 148 21.9 101950 59
2005-06-23 06:31:13 51°13.711 2°55.758 2.3 142 21.9 101950 59
2005-06-23 06:31:18 51°13.71 2°55.758 2.1 142 21.9 101950 59
2005-06-23 06:31:23 51°13.711 2°55.757 1.8 135 21.9 101950 59
2005-06-23 06:31:27 51°13.712 2°55.756 1.5 138 21.8 101950 59
2005-06-23 06:31:33 51°13.715 2°55.754 1.2 136 21.8 101950 59
2005-06-23 06:31:38 51°13.718 2°55.751 1 135 21.9 101950 59
2005-06-23 06:31:43 51°13.722 2°55.747 1 132 21.9 101950 59
2005-06-23 06:31:47 51°13.724 2°55.743 0.8 132 21.8 101950 59
2005-06-23 06:31:52 51°13.728 2°55.739 0.6 131 21.8 101950 59
2005-06-23 06:31:57 51°13.733 2°55.733 0.5 131 21.8 101950 59
2005-06-23 06:32:02 51°13.737 2°55.728 0.5 129 21.8 101950 59
2005-06-23 06:32:07 51°13.743 2°55.721 0.8 126 21.8 101950 59
2005-06-23 06:32:12 51°13.749 2°55.714 1.2 113 21.8 101950 59
2005-06-23 06:32:17 51°13.755 2°55.707 1.2 105 21.8 101950 59
2005-06-23 06:32:22 51°13.762 2°55.698 1.2 81 21.8 101950 59
2005-06-23 06:32:27 51°13.77 2°55.689 1.4 55 21.8 101950 59
2005-06-23 06:32:32 51°13.778 2°55.68 1.5 48 21.8 101950 59
2005-06-23 06:32:37 51°13.785 2°55.673 1.8 41 21.8 101950 59
2005-06-23 06:32:42 51°13.794 2°55.664 1.7 41 21.8 101950 59
2005-06-23 06:32:47 51°13.803 2°55.655 1.8 40 21.8 101950 59
2005-06-23 06:32:52 51°13.811 2°55.647 1.6 27 21.8 101950 59
2005-06-23 06:32:57 51°13.821 2°55.639 2 28 21.8 101950 59
2005-06-23 06:33:02 51°13.83 2°55.631 1.8 27 21.8 101950 59
2005-06-23 06:33:07 51°13.842 2°55.622 1.7 21 21.8 101950 59
2005-06-23 06:33:12 51°13.852 2°55.614 1.8 12 21.8 101950 59
2005-06-23 06:33:17 51°13.861 2°55.607 1.8 10 21.8 101950 59
2005-06-23 06:33:22 51°13.872 2°55.6 2.1 12 21.8 101950 59
2005-06-23 06:33:27 51°13.884 2°55.592 2.3 12 21.8 101950 59
2005-06-23 06:33:31 51°13.892 2°55.585 2.5 23 21.8 101950 59
2005-06-23 06:33:37 51°13.906 2°55.576 2.2 16 21.8 101950 59
2005-06-23 06:33:42 51°13.916 2°55.569 2.5 10 21.8 101950 59
2005-06-23 06:33:46 51°13.925 2°55.563 2.2 12 21.8 101950 59
2005-06-23 06:33:51 51°13.937 2°55.555 2.1 31 21.8 101950 59
2005-06-23 06:33:57 51°13.95 2°55.545 1.8 31 21.8 101950 59
2005-06-23 06:34:02 51°13.961 2°55.538 1.8 21 21.8 101950 59
2005-06-23 06:34:07 51°13.973 2°55.529 1.8 25 21.8 101950 59
2005-06-23 06:34:12 51°13.984 2°55.522 1.7 31 21.8 101950 59
2005-06-23 06:34:17 51°13.996 2°55.514 2.1 22 21.8 101950 58
2005-06-23 06:34:22 51°14.006 2°55.507 1.7 22 21.8 101950 58
2005-06-23 06:34:27 51°14.018 2°55.499 2.2 16 21.8 101950 58
2005-06-23 06:34:31 51°14.028 2°55.492 1.9 11 21.8 101950 58
2005-06-23 06:34:37 51°14.042 2°55.483 2 12 21.8 101950 58
2005-06-23 06:34:42 51°14.054 2°55.477 2 12 21.8 101950 58
2005-06-23 06:34:47 51°14.066 2°55.47 2 12 21.8 101950 58
2005-06-23 06:34:51 51°14.075 2°55.464 2.1 18 21.8 101950 58
2005-06-23 06:34:57 51°14.087 2°55.455 2.2 21 21.8 101950 58
2005-06-23 06:35:02 51°14.098 2°55.446 2 28 21.8 101950 58
2005-06-23 06:35:07 51°14.11 2°55.437 1.8 27 21.9 101950 58
2005-06-23 06:35:11 51°14.12 2°55.429 1.8 25 21.9 101950 58
2005-06-23 06:35:17 51°14.134 2°55.419 1.9 25 21.9 101950 58
2005-06-23 06:35:22 51°14.145 2°55.409 1.9 26 21.9 101950 58
2005-06-23 06:35:27 51°14.157 2°55.399 2.1 20 21.9 101950 58
2005-06-23 06:35:32 51°14.167 2°55.389 2.2 17 21.9 101950 58
2005-06-23 06:35:37 51°14.179 2°55.376 1.9 16 21.9 101950 58
2005-06-23 06:35:42 51°14.189 2°55.365 1.9 2 21.9 101950 58
2005-06-23 06:35:47 51°14.201 2°55.351 1.9 4 21.9 101950 59
2005-06-23 06:35:52 51°14.211 2°55.338 1.8 1 21.9 101950 59
2005-06-23 06:35:57 51°14.222 2°55.323 1.9 3 21.9 101950 59
2005-06-23 06:36:02 51°14.232 2°55.31 1.9 3 21.9 101950 59
2005-06-23 06:36:07 51°14.242 2°55.295 2 1 21.9 101950 58
2005-06-23 06:36:11 51°14.251 2°55.281 2.2 359 21.9 101950 58
2005-06-23 06:36:17 51°14.263 2°55.261 2.4 360 21.9 101960 58
2005-06-23 06:36:22 51°14.272 2°55.246 2.3 359 21.9 101960 58
2005-06-23 06:36:27 51°14.282 2°55.227 2.4 358 21.9 101950 58
2005-06-23 06:36:31 51°14.289 2°55.214 2.9 355 21.9 101950 58
2005-06-23 06:36:37 51°14.3 2°55.193 2.9 356 21.9 101950 58
2005-06-23 06:36:42 51°14.31 2°55.174 2.8 351 21.9 101950 58
2005-06-23 06:36:46 51°14.317 2°55.159 2.7 350 21.9 101960 59
2005-06-23 06:36:51 51°14.327 2°55.14 2.4 350 21.9 101960 59
2005-06-23 06:36:57 51°14.338 2°55.117 2.4 350 21.9 101950 59
2005-06-23 06:37:03 51°14.35 2°55.094 2.4 349 21.9 101950 59
2005-06-23 06:37:07 51°14.357 2°55.079 2.4 349 22 101950 59
2005-06-23 06:37:11 51°14.367 2°55.062 2.3 350 22 101950 59
2005-06-23 06:37:17 51°14.379 2°55.04 2.3 352 21.9 101960 58
2005-06-23 06:37:22 51°14.388 2°55.023 3.3 1 21.9 101960 58
2005-06-23 06:37:27 51°14.401 2°55.002 3 357 21.9 101960 58
2005-06-23 06:37:31 51°14.411 2°54.987 3 354 21.9 101960 58
2005-06-23 06:37:37 51°14.426 2°54.966 2.7 359 21.9 101960 58
2005-06-23 06:37:42 51°14.438 2°54.949 2.9 360 21.9 101960 58
2005-06-23 06:37:47 51°14.452 2°54.927 2.9 353 21.9 101960 59
2005-06-23 06:37:51 51°14.461 2°54.913 2.9 350 21.9 101960 59
2005-06-23 06:37:57 51°14.476 2°54.887 3.2 352 22 101960 58
2005-06-23 06:38:02 51°14.488 2°54.866 3.6 358 22 101960 58
2005-06-23 06:38:07 51°14.503 2°54.843 3.5 2 22 101960 58
2005-06-23 06:38:12 51°14.515 2°54.825 3.4 360 22 101960 58
2005-06-23 06:38:17 51°14.529 2°54.804 3.3 359 21.9 101950 58
2005-06-23 06:38:21 51°14.541 2°54.786 3.4 358 21.9 101950 58
2005-06-23 06:38:25 51°14.552 2°54.771 3.2 2 22 101960 58
2005-06-23 06:38:31 51°14.569 2°54.748 2.9 353 22 101960 58
2005-06-23 06:38:37 51°14.586 2°54.725 3.2 359 22 101960 58
2005-06-23 06:38:42 51°14.599 2°54.708 2.8 3 22 101960 58
2005-06-23 06:38:46 51°14.611 2°54.694 2.5 7 22 101960 58
2005-06-23 06:38:51 51°14.627 2°54.675 2.9 8 22 101960 58
2005-06-23 06:38:57 51°14.645 2°54.656 2.9 2 22 101960 58
2005-06-23 06:39:02 51°14.661 2°54.64 2.6 8 22 101960 58
2005-06-23 06:39:07 51°14.676 2°54.624 2.9 8 22 101960 58
2005-06-23 06:39:12 51°14.69 2°54.609 3.1 7 22 101960 58
2005-06-23 06:39:17 51°14.705 2°54.593 2.9 1 22 101960 58
2005-06-23 06:39:22 51°14.722 2°54.575 2.9 359 22 101960 58
2005-06-23 06:39:27 51°14.737 2°54.558 2.8 2 22 101960 58
2005-06-23 06:39:31 51°14.748 2°54.543 3 -999 22 101960 58
2005-06-23 06:39:37 51°14.764 2°54.523 3 358 22 101960 59
2005-06-23 06:39:42 51°14.78 2°54.501 2.8 358 22 101960 59
2005-06-23 06:39:47 51°14.794 2°54.482 3 356 22 101960 59
2005-06-23 06:39:51 51°14.805 2°54.466 3 354 22 101960 59
2005-06-23 06:39:57 51°14.821 2°54.442 3.1 354 22 101960 59
2005-06-23 06:40:02 51°14.833 2°54.423 3.1 352 22 101960 59
2005-06-23 06:40:07 51°14.848 2°54.401 3.1 355 22 101960 58
2005-06-23 06:40:11 51°14.859 2°54.385 3 354 22 101960 58
2005-06-23 06:40:17 51°14.876 2°54.362 2.8 356 22 101960 58
2005-06-23 06:40:22 51°14.89 2°54.344 2.9 1 22 101960 58
2005-06-23 06:40:27 51°14.903 2°54.329 2.9 4 22 101960 58
2005-06-23 06:40:32 51°14.919 2°54.311 2.9 6 22 101960 58
2005-06-23 06:40:37 51°14.935 2°54.296 2.9 10 22 101960 59
2005-06-23 06:40:41 51°14.947 2°54.285 2.8 12 22 101960 59
2005-06-23 06:40:47 51°14.965 2°54.267 2.7 10 22 101960 59
2005-06-23 06:40:52 51°14.98 2°54.253 2.7 12 22 101960 59
2005-06-23 06:40:57 51°14.994 2°54.239 2.7 9 22 101970 59
2005-06-23 06:41:02 51°15.008 2°54.226 2.7 8 22 101970 59
2005-06-23 06:41:06 51°15.021 2°54.213 2.7 5 22 101960 59
2005-06-23 06:41:11 51°15.036 2°54.198 3 1 22 101960 59
2005-06-23 06:41:17 51°15.053 2°54.179 2.9 360 22 101960 59
2005-06-23 06:41:22 51°15.068 2°54.163 3.3 358 22 101960 59
2005-06-23 06:41:25 51°15.076 2°54.153 3.4 359 22 101960 59
2005-06-23 06:41:32 51°15.096 2°54.13 3.1 357 22 101960 59
2005-06-23 06:41:36 51°15.106 2°54.117 3.2 354 22 101960 60
2005-06-23 06:41:42 51°15.123 2°54.093 3.2 352 22 101960 60
2005-06-23 06:41:47 51°15.136 2°54.073 3.5 352 22 101960 60
2005-06-23 06:41:51 51°15.147 2°54.057 3.4 354 22 101960 60
2005-06-23 06:41:57 51°15.161 2°54.036 3.7 354 22 101960 60
2005-06-23 06:42:02 51°15.176 2°54.013 3.4 352 22 101960 60
2005-06-23 06:42:06 51°15.185 2°54 3.5 354 21.9 101960 60
2005-06-23 06:42:12 51°15.203 2°53.974 3.6 358 21.9 101960 60
2005-06-23 06:42:17 51°15.215 2°53.958 3.6 357 21.9 101960 60
2005-06-23 06:42:22 51°15.232 2°53.939 3.6 5 21.9 101960 60
2005-06-23 06:42:27 51°15.245 2°53.925 3.6 8 21.9 101960 60
2005-06-23 06:42:32 51°15.263 2°53.909 3.4 13 21.9 101960 60
2005-06-23 06:42:37 51°15.279 2°53.896 3.7 14 21.9 101960 60
2005-06-23 06:42:41 51°15.292 2°53.885 3.5 13 21.9 101960 60
2005-06-23 06:42:46 51°15.306 2°53.874 3.8 13 21.9 101970 60
2005-06-23 06:42:52 51°15.328 2°53.857 3.7 17 21.9 101970 60
2005-06-23 06:42:57 51°15.344 2°53.844 3.5 10 21.8 101960 60
2005-06-23 06:43:02 51°15.359 2°53.831 3.7 11 21.8 101960 60
2005-06-23 06:43:06 51°15.373 2°53.818 4.1 8 21.8 101960 60
2005-06-23 06:43:11 51°15.389 2°53.803 4.1 8 21.8 101960 60
2005-06-23 06:43:17 51°15.408 2°53.783 4.2 6 21.8 101960 61
2005-06-23 06:43:22 51°15.421 2°53.768 4 5 21.8 101960 61
2005-06-23 06:43:27 51°15.437 2°53.751 3.8 6 21.8 101960 62
2005-06-23 06:43:32 51°15.454 2°53.732 3.9 6 21.8 101960 62
2005-06-23 06:43:37 51°15.469 2°53.715 3.9 6 21.8 101960 62
2005-06-23 06:43:42 51°15.485 2°53.699 3.8 5 21.8 101960 62
2005-06-23 06:43:47 51°15.501 2°53.682 4.3 6 21.8 101960 62
2005-06-23 06:43:51 51°15.513 2°53.669 4.3 12 21.8 101960 62
2005-06-23 06:43:56 51°15.528 2°53.655 4.2 12 21.8 101960 62
2005-06-23 06:44:02 51°15.549 2°53.635 4.4 11 21.8 101960 62
2005-06-23 06:44:07 51°15.565 2°53.619 4.4 10 21.7 101970 63
2005-06-23 06:44:12 51°15.582 2°53.604 4 16 21.7 101970 63
2005-06-23 06:44:17 51°15.596 2°53.59 4.5 12 21.6 101960 63
2005-06-23 06:44:22 51°15.612 2°53.574 4.5 11 21.6 101960 63
2005-06-23 06:44:27 51°15.629 2°53.555 4.6 9 21.7 101960 63
2005-06-23 06:44:32 51°15.645 2°53.538 4.4 10 21.7 101960 63
2005-06-23 06:44:37 51°15.66 2°53.521 4.3 8 21.6 101960 63
2005-06-23 06:44:42 51°15.676 2°53.503 4.6 9 21.6 101960 63
2005-06-23 06:44:47 51°15.692 2°53.486 4.4 6 21.6 101960 64
2005-06-23 06:44:52 51°15.707 2°53.469 4.6 9 21.6 101960 64
2005-06-23 06:44:57 51°15.721 2°53.454 4.4 9 21.5 101960 64
2005-06-23 06:45:02 51°15.739 2°53.435 4.2 10 21.5 101960 64
2005-06-23 06:45:06 51°15.751 2°53.421 4.3 8 21.5 101960 64
2005-06-23 06:45:11 51°15.767 2°53.405 4.3 9 21.5 101960 64
2005-06-23 06:45:17 51°15.785 2°53.386 4.3 8 21.5 101960 64
2005-06-23 06:45:22 51°15.802 2°53.367 4.4 9 21.5 101960 64
2005-06-23 06:45:25 51°15.812 2°53.358 4.3 10 21.5 101960 65
2005-06-23 06:45:33 51°15.835 2°53.332 4.5 8 21.5 101960 65
2005-06-23 06:45:37 51°15.85 2°53.317 4.3 9 21.4 101960 65
2005-06-23 06:45:42 51°15.864 2°53.301 4.3 8 21.4 101960 65
2005-06-23 06:45:46 51°15.878 2°53.286 4.4 8 21.4 101960 65
2005-06-23 06:45:51 51°15.894 2°53.268 4.6 7 21.4 101960 65
2005-06-23 06:45:57 51°15.913 2°53.248 4.3 5 21.4 101960 65
2005-06-23 06:46:01 51°15.925 2°53.234 4.3 5 21.4 101960 65
2005-06-23 06:46:07 51°15.944 2°53.214 4.6 6 21.4 101960 65
2005-06-23 06:46:12 51°15.959 2°53.199 4.6 5 21.4 101960 65
2005-06-23 06:46:17 51°15.974 2°53.182 4.6 6 21.3 101960 65
2005-06-23 06:46:22 51°15.992 2°53.164 4.5 6 21.3 101960 65
2005-06-23 06:46:27 51°16.008 2°53.147 4.4 5 21.3 101960 65
2005-06-23 06:46:31 51°16.02 2°53.133 4.3 5 21.3 101960 65
2005-06-23 06:46:37 51°16.038 2°53.115 4.5 4 21.3 101960 65
2005-06-23 06:46:42 51°16.055 2°53.096 4.3 5 21.3 101960 65
2005-06-23 06:46:47 51°16.071 2°53.079 4.6 5 21.3 101960 65
2005-06-23 06:46:52 51°16.087 2°53.063 4.4 6 21.3 101960 65
2005-06-23 06:46:57 51°16.103 2°53.046 4.5 5 21.3 101960 65
2005-06-23 06:47:02 51°16.117 2°53.031 4.5 6 21.3 101960 65
2005-06-23 06:47:06 51°16.131 2°53.016 4.4 5 21.3 101960 65
2005-06-23 06:47:12 51°16.15 2°52.997 4.3 7 21.3 101960 65
2005-06-23 06:47:17 51°16.164 2°52.983 4.4 8 21.3 101960 65
2005-06-23 06:47:22 51°16.182 2°52.965 4.5 8 21.3 101960 65
2005-06-23 06:47:27 51°16.198 2°52.949 4.4 8 21.3 101960 65
2005-06-23 06:47:31 51°16.211 2°52.936 4.5 9 21.3 101960 65
2005-06-23 06:47:37 51°16.231 2°52.917 4.6 9 21.2 101960 65
2005-06-23 06:47:42 51°16.245 2°52.903 4.6 9 21.2 101960 65
2005-06-23 06:47:47 51°16.261 2°52.887 4.5 10 21.2 101960 65
2005-06-23 06:47:52 51°16.278 2°52.869 4.6 10 21.2 101960 65
2005-06-23 06:47:57 51°16.294 2°52.853 4.6 11 21.2 101960 65
2005-06-23 06:48:02 51°16.309 2°52.839 4.5 10 21.2 101960 65
2005-06-23 06:48:06 51°16.323 2°52.824 4.5 11 21.2 101960 65
2005-06-23 06:48:11 51°16.34 2°52.809 4.6 10 21.2 101960 65
2005-06-23 06:48:16 51°16.356 2°52.794 4.3 12 21.1 101960 65
2005-06-23 06:48:21 51°16.372 2°52.778 4.3 12 21.1 101960 65
2005-06-23 06:48:27 51°16.392 2°52.76 4.3 13 21.1 101960 65
2005-06-23 06:48:32 51°16.408 2°52.745 4.2 13 21.1 101960 65
2005-06-23 06:48:37 51°16.424 2°52.73 4.2 13 21.1 101960 65
2005-06-23 06:48:41 51°16.437 2°52.718 4.3 13 21.1 101960 65
2005-06-23 06:48:47 51°16.457 2°52.7 4.2 14 21.1 101960 65
2005-06-23 06:48:52 51°16.473 2°52.684 4.3 13 21.1 101960 65
2005-06-23 06:48:57 51°16.488 2°52.671 4.3 14 21.1 101960 65
2005-06-23 06:49:02 51°16.504 2°52.656 4.3 15 21.1 101960 65
2005-06-23 06:49:07 51°16.522 2°52.639 4.1 15 21.1 101960 66
2005-06-23 06:49:12 51°16.538 2°52.625 4.2 15 21.1 101960 66
2005-06-23 06:49:17 51°16.555 2°52.61 4.2 15 21.1 101960 66
2005-06-23 06:49:22 51°16.569 2°52.597 4.2 16 21.1 101960 66
2005-06-23 06:49:27 51°16.587 2°52.58 4.2 15 21.1 101960 66
2005-06-23 06:49:32 51°16.603 2°52.566 4.2 18 21.1 101960 66
2005-06-23 06:49:37 51°16.62 2°52.553 4.5 19 21 101960 66
2005-06-23 06:49:42 51°16.635 2°52.542 4.4 21 21 101960 66
2005-06-23 06:49:47 51°16.651 2°52.531 4.5 22 21 101960 66
2005-06-23 06:49:52 51°16.67 2°52.519 4.5 22 21 101960 66
2005-06-23 06:49:57 51°16.687 2°52.508 4.5 22 21 101960 66
2005-06-23 06:50:02 51°16.702 2°52.497 4.4 22 21 101960 66
2005-06-23 06:50:06 51°16.717 2°52.487 4.2 21 21 101960 67
2005-06-23 06:50:11 51°16.733 2°52.476 4.4 22 21 101960 67
2005-06-23 06:50:17 51°16.752 2°52.461 4.2 20 20.9 101960 67
2005-06-23 06:50:21 51°16.765 2°52.452 4.1 22 20.9 101960 67
2005-06-23 06:50:27 51°16.783 2°52.438 4.1 20 20.9 101960 67
2005-06-23 06:50:32 51°16.799 2°52.426 4.2 20 20.9 101960 67
2005-06-23 06:50:36 51°16.814 2°52.414 4.1 19 20.9 101960 67
2005-06-23 06:50:41 51°16.83 2°52.402 4.2 21 20.9 101960 67
2005-06-23 06:50:47 51°16.849 2°52.387 4.1 21 20.9 101960 67
2005-06-23 06:50:52 51°16.866 2°52.374 4.1 22 20.9 101960 67
2005-06-23 06:50:57 51°16.882 2°52.363 4 23 20.8 101960 67
2005-06-23 06:51:01 51°16.895 2°52.354 4 24 20.8 101960 67
2005-06-23 06:51:07 51°16.915 2°52.341 4 25 20.8 101960 67
2005-06-23 06:51:11 51°16.928 2°52.332 4 26 20.8 101960 67
2005-06-23 06:51:17 51°16.946 2°52.32 4.1 25 20.8 101960 68
2005-06-23 06:51:22 51°16.965 2°52.308 4.2 25 20.8 101960 68
2005-06-23 06:51:27 51°16.981 2°52.297 4.2 24 20.8 101960 68
2005-06-23 06:51:32 51°16.998 2°52.286 4.1 25 20.8 101960 68
2005-06-23 06:51:37 51°17.014 2°52.274 4.2 23 20.7 101960 68
2005-06-23 06:51:41 51°17.027 2°52.265 4.2 22 20.7 101960 68
2005-06-23 06:51:47 51°17.047 2°52.249 4.2 22 20.7 101960 68
2005-06-23 06:51:51 51°17.06 2°52.24 4.2 22 20.7 101960 68
2005-06-23 06:51:57 51°17.08 2°52.226 4.3 22 20.7 101960 68
2005-06-23 06:52:02 51°17.097 2°52.215 4.3 22 20.7 101960 68
2005-06-23 06:52:06 51°17.109 2°52.208 4.3 23 20.7 101960 68
2005-06-23 06:52:12 51°17.131 2°52.195 4.4 23 20.7 101960 68
2005-06-23 06:52:17 51°17.148 2°52.186 4.4 24 20.7 101960 68
2005-06-23 06:52:22 51°17.165 2°52.176 4.4 23 20.7 101960 68
2005-06-23 06:52:27 51°17.182 2°52.167 4.3 22 20.6 101960 68
2005-06-23 06:52:31 51°17.196 2°52.16 4.4 23 20.6 101960 68
2005-06-23 06:52:37 51°17.217 2°52.148 4.4 21 20.6 101960 68
2005-06-23 06:52:42 51°17.234 2°52.138 4.3 21 20.6 101960 68
2005-06-23 06:52:46 51°17.245 2°52.13 4.3 19 20.6 101960 68
2005-06-23 06:52:52 51°17.267 2°52.116 4.3 19 20.6 101960 68
2005-06-23 06:52:57 51°17.284 2°52.105 4.2 20 20.6 101960 68
2005-06-23 06:53:02 51°17.299 2°52.095 4.5 18 20.6 101960 68
2005-06-23 06:53:07 51°17.318 2°52.083 4.3 19 20.6 101960 68
2005-06-23 06:53:12 51°17.335 2°52.073 4.3 19 20.6 101960 68
2005-06-23 06:53:17 51°17.35 2°52.064 4.4 18 20.6 101960 69
2005-06-23 06:53:22 51°17.367 2°52.053 4.4 20 20.6 101960 69
2005-06-23 06:53:27 51°17.385 2°52.043 4.3 19 20.6 101960 69
2005-06-23 06:53:31 51°17.399 2°52.035 4.4 18 20.6 101960 69
2005-06-23 06:53:37 51°17.417 2°52.023 4.2 16 20.5 101960 69
2005-06-23 06:53:42 51°17.435 2°52.012 4.2 18 20.5 101960 69
2005-06-23 06:53:47 51°17.451 2°51.998 4.1 13 20.5 101960 69
2005-06-23 06:53:52 51°17.466 2°51.985 4 14 20.5 101960 69
2005-06-23 06:53:57 51°17.482 2°51.968 4.1 9 20.5 101960 69
2005-06-23 06:54:02 51°17.497 2°51.951 4.2 8 20.5 101960 69
2005-06-23 06:54:06 51°17.509 2°51.937 4 6 20.5 101960 69
2005-06-23 06:54:12 51°17.526 2°51.915 4.1 6 20.5 101960 69
2005-06-23 06:54:17 51°17.54 2°51.897 4.1 5 20.5 101960 69
2005-06-23 06:54:22 51°17.553 2°51.876 4.2 360 20.5 101960 69
2005-06-23 06:54:27 51°17.565 2°51.854 4.2 357 20.5 101960 69
2005-06-23 06:54:32 51°17.577 2°51.831 4.1 356 20.5 101960 69
2005-06-23 06:54:37 51°17.589 2°51.808 4.3 356 20.4 101960 70
2005-06-23 06:54:42 51°17.6 2°51.784 4.4 356 20.4 101960 70
2005-06-23 06:54:46 51°17.607 2°51.767 4.3 352 20.4 101960 70
2005-06-23 06:54:51 51°17.618 2°51.739 4.4 351 20.4 101960 70
2005-06-23 06:54:57 51°17.629 2°51.708 4.5 348 20.4 101960 70
2005-06-23 06:55:02 51°17.637 2°51.681 4.7 349 20.4 101960 70
2005-06-23 06:55:05 51°17.643 2°51.666 4.6 347 20.4 101960 70
2005-06-23 06:55:12 51°17.654 2°51.628 4.8 348 20.4 101960 70
2005-06-23 06:55:16 51°17.66 2°51.609 4.6 346 20.4 101960 70
2005-06-23 06:55:22 51°17.67 2°51.573 4.9 346 20.4 101960 70
2005-06-23 06:55:27 51°17.678 2°51.547 4.7 346 20.4 101970 70
2005-06-23 06:55:32 51°17.687 2°51.52 4.7 348 20.4 101970 70
2005-06-23 06:55:37 51°17.695 2°51.496 5 347 20.4 101960 70
2005-06-23 06:55:42 51°17.704 2°51.467 4.7 347 20.4 101960 70
2005-06-23 06:55:47 51°17.714 2°51.44 4.8 347 20.4 101970 70
2005-06-23 06:55:52 51°17.722 2°51.416 4.6 349 20.4 101970 70
2005-06-23 06:55:57 51°17.731 2°51.39 4.6 349 20.4 101970 70
2005-06-23 06:56:02 51°17.742 2°51.362 4.8 350 20.4 101970 70
2005-06-23 06:56:07 51°17.752 2°51.336 4.7 350 20.4 101970 70
2005-06-23 06:56:11 51°17.759 2°51.315 5 349 20.4 101970 70
2005-06-23 06:56:17 51°17.771 2°51.283 5 349 20.4 101970 71
2005-06-23 06:56:22 51°17.779 2°51.258 4.5 348 20.4 101970 71
2005-06-23 06:56:27 51°17.789 2°51.229 4.8 346 20.4 101970 71
2005-06-23 06:56:32 51°17.798 2°51.201 4.9 346 20.4 101970 71
2005-06-23 06:56:37 51°17.807 2°51.174 5.1 348 20.4 101970 71
2005-06-23 06:56:42 51°17.815 2°51.149 4.9 347 20.4 101970 71
2005-06-23 06:56:47 51°17.823 2°51.122 5.1 347 20.4 101970 71
2005-06-23 06:56:51 51°17.832 2°51.096 5.3 348 20.4 101970 71
2005-06-23 06:56:57 51°17.842 2°51.063 5.4 348 20.4 101970 71
2005-06-23 06:57:02 51°17.85 2°51.038 5.2 344 20.4 101970 71
2005-06-23 06:57:06 51°17.858 2°51.013 4.9 344 20.4 101970 71
2005-06-23 06:57:11 51°17.868 2°50.985 5.1 345 20.4 101970 71
2005-06-23 06:57:17 51°17.88 2°50.952 5.1 345 20.4 101970 71
2005-06-23 06:57:22 51°17.889 2°50.925 5.4 349 20.4 101970 71
2005-06-23 06:57:27 51°17.899 2°50.897 5.5 347 20.4 101970 71
2005-06-23 06:57:32 51°17.909 2°50.87 5.2 347 20.4 101970 71
2005-06-23 06:57:37 51°17.918 2°50.842 5.1 347 20.3 101970 71
2005-06-23 06:57:42 51°17.927 2°50.816 5.3 346 20.3 101970 71
2005-06-23 06:57:47 51°17.937 2°50.785 5.4 347 20.4 101970 71
2005-06-23 06:57:52 51°17.945 2°50.76 5.5 346 20.4 101970 71
2005-06-23 06:57:57 51°17.954 2°50.729 5.2 347 20.4 101970 71
2005-06-23 06:58:02 51°17.962 2°50.703 5.3 348 20.4 101970 71
2005-06-23 06:58:07 51°17.972 2°50.672 5.4 348 20.4 101970 71
2005-06-23 06:58:11 51°17.979 2°50.649 5.2 348 20.4 101970 71
2005-06-23 06:58:17 51°17.99 2°50.615 5.2 349 20.4 101970 71
2005-06-23 06:58:22 51°17.997 2°50.589 5.3 349 20.4 101970 71
2005-06-23 06:58:27 51°18.007 2°50.558 5.5 350 20.4 101970 71
2005-06-23 06:58:32 51°18.016 2°50.529 5.6 349 20.4 101970 71
2005-06-23 06:58:37 51°18.024 2°50.501 5.7 348 20.3 101970 71
2005-06-23 06:58:42 51°18.033 2°50.472 5.4 349 20.3 101970 71
2005-06-23 06:58:46 51°18.04 2°50.45 5.5 347 20.3 101970 71
2005-06-23 06:58:52 51°18.051 2°50.416 5.3 347 20.3 101970 71
2005-06-23 06:58:57 51°18.06 2°50.387 5.5 346 20.3 101970 71
2005-06-23 06:59:02 51°18.067 2°50.362 5.5 347 20.3 101970 71
2005-06-23 06:59:06 51°18.074 2°50.339 5.4 347 20.3 101970 71
2005-06-23 06:59:12 51°18.085 2°50.304 5.4 346 20.3 101970 71
2005-06-23 06:59:17 51°18.095 2°50.273 5.5 347 20.3 101970 71
2005-06-23 06:59:22 51°18.103 2°50.245 5.5 347 20.3 101970 71
2005-06-23 06:59:26 51°18.11 2°50.222 5.4 348 20.3 101970 71
2005-06-23 06:59:32 51°18.121 2°50.187 5.3 348 20.3 101970 71
2005-06-23 06:59:37 51°18.13 2°50.159 5.5 348 20.3 101970 71
2005-06-23 06:59:42 51°18.139 2°50.131 5.5 347 20.3 101970 71
2005-06-23 06:59:47 51°18.148 2°50.102 5.2 347 20.3 101970 71
2005-06-23 06:59:52 51°18.156 2°50.074 5.4 346 20.3 101970 71
2005-06-23 06:59:57 51°18.165 2°50.045 5.3 347 20.3 101970 71
2005-06-23 07:00:02 51°18.173 2°50.019 5.5 346 20.3 101970 71
2005-06-23 07:00:07 51°18.182 2°49.988 5.5 346 20.4 101970 71
2005-06-23 07:00:12 51°18.19 2°49.962 5.3 345 20.4 101970 71
2005-06-23 07:00:17 51°18.199 2°49.931 5.5 345 20.3 101970 71
2005-06-23 07:00:22 51°18.208 2°49.902 5.5 346 20.3 101970 71
2005-06-23 07:00:27 51°18.216 2°49.873 5.3 345 20.3 101970 71
2005-06-23 07:00:32 51°18.225 2°49.844 5.5 346 20.3 101970 71
2005-06-23 07:00:37 51°18.233 2°49.816 5.4 346 20.3 101970 71
2005-06-23 07:00:42 51°18.241 2°49.79 5.3 346 20.3 101970 71
2005-06-23 07:00:47 51°18.25 2°49.758 5.4 345 20.3 101970 71
2005-06-23 07:00:52 51°18.259 2°49.73 5.3 345 20.3 101970 71
2005-06-23 07:00:57 51°18.268 2°49.701 5.1 347 20.3 101970 71
2005-06-23 07:01:02 51°18.275 2°49.675 5.3 348 20.3 101970 71
2005-06-23 07:01:07 51°18.285 2°49.644 5.1 347 20.3 101970 71
2005-06-23 07:01:11 51°18.292 2°49.621 5.1 347 20.3 101970 71
2005-06-23 07:01:17 51°18.302 2°49.587 5.2 347 20.3 101970 71
2005-06-23 07:01:22 51°18.31 2°49.558 5.3 347 20.3 101970 71
2005-06-23 07:01:26 51°18.317 2°49.535 5.4 346 20.3 101970 71
2005-06-23 07:01:32 51°18.327 2°49.503 5.3 348 20.3 101970 71
2005-06-23 07:01:37 51°18.336 2°49.473 5.1 348 20.3 101960 71
2005-06-23 07:01:42 51°18.344 2°49.447 5.3 348 20.3 101960 71
2005-06-23 07:01:47 51°18.354 2°49.416 5.2 349 20.3 101970 71
2005-06-23 07:01:51 51°18.36 2°49.393 5.4 348 20.3 101970 71
2005-06-23 07:01:57 51°18.371 2°49.359 5.3 347 20.3 101970 71
2005-06-23 07:02:02 51°18.378 2°49.334 5.3 348 20.3 101970 71
2005-06-23 07:02:07 51°18.388 2°49.303 5.2 348 20.3 101970 71
2005-06-23 07:02:12 51°18.396 2°49.277 5.3 347 20.3 101970 71
2005-06-23 07:02:17 51°18.405 2°49.249 5.4 348 20.3 101970 71
2005-06-23 07:02:22 51°18.414 2°49.218 5.4 348 20.3 101970 71
2005-06-23 07:02:27 51°18.423 2°49.191 5.1 347 20.3 101970 71
2005-06-23 07:02:32 51°18.432 2°49.163 5 348 20.3 101970 71
2005-06-23 07:02:37 51°18.441 2°49.135 5.1 348 20.3 101970 71
2005-06-23 07:02:42 51°18.449 2°49.11 4.9 347 20.3 101970 71
2005-06-23 07:02:47 51°18.459 2°49.079 5.3 347 20.3 101970 71
2005-06-23 07:02:52 51°18.468 2°49.051 5.2 347 20.3 101970 71
2005-06-23 07:02:57 51°18.477 2°49.023 5.4 347 20.3 101970 71
2005-06-23 07:03:02 51°18.485 2°48.997 5.2 347 20.3 101970 71
2005-06-23 07:03:07 51°18.494 2°48.965 5.5 347 20.3 101970 71
2005-06-23 07:03:11 51°18.501 2°48.942 5.4 348 20.3 101970 71
2005-06-23 07:03:17 51°18.511 2°48.907 5.5 347 20.3 101970 71
2005-06-23 07:03:22 51°18.52 2°48.879 5.3 348 20.3 101970 71
2005-06-23 07:03:26 51°18.527 2°48.857 5.1 347 20.3 101970 71
2005-06-23 07:03:32 51°18.538 2°48.823 5.4 348 20.3 101970 71
2005-06-23 07:03:37 51°18.547 2°48.795 5.1 348 20.3 101970 70
2005-06-23 07:03:42 51°18.556 2°48.77 5.3 347 20.3 101970 70
2005-06-23 07:03:46 51°18.564 2°48.745 5.3 348 20.3 101970 71
2005-06-23 07:03:51 51°18.574 2°48.717 5.6 346 20.3 101970 71
2005-06-23 07:03:57 51°18.586 2°48.683 5.3 349 20.2 101970 71
2005-06-23 07:04:02 51°18.594 2°48.657 5.6 348 20.2 101970 71
2005-06-23 07:04:07 51°18.603 2°48.625 5.6 350 20.3 101970 71
2005-06-23 07:04:12 51°18.611 2°48.599 5.5 348 20.3 101970 71
2005-06-23 07:04:17 51°18.62 2°48.567 5.8 348 20.2 101970 71
2005-06-23 07:04:22 51°18.628 2°48.537 5.6 346 20.2 101970 71
2005-06-23 07:04:27 51°18.636 2°48.507 5.6 346 20.2 101970 71
2005-06-23 07:04:32 51°18.644 2°48.476 5.8 348 20.2 101970 71
2005-06-23 07:04:37 51°18.652 2°48.446 5.8 348 20.2 101970 71
2005-06-23 07:04:42 51°18.66 2°48.419 5.6 348 20.2 101970 71
2005-06-23 07:04:47 51°18.668 2°48.386 5.8 347 20.2 101960 71
2005-06-23 07:04:51 51°18.675 2°48.362 5.8 349 20.2 101960 71
2005-06-23 07:04:57 51°18.685 2°48.326 6 349 20.2 101970 71
2005-06-23 07:05:02 51°18.692 2°48.299 5.9 348 20.2 101970 71
2005-06-23 07:05:07 51°18.702 2°48.267 5.5 348 20.2 101960 71
2005-06-23 07:05:11 51°18.708 2°48.243 5.8 348 20.2 101960 71
2005-06-23 07:05:17 51°18.718 2°48.207 6 349 20.2 101970 71
2005-06-23 07:05:22 51°18.726 2°48.177 5.8 349 20.2 101970 71
2005-06-23 07:05:27 51°18.734 2°48.148 5.6 348 20.2 101960 71
2005-06-23 07:05:32 51°18.743 2°48.118 5.9 347 20.2 101960 71
2005-06-23 07:05:37 51°18.751 2°48.089 5.9 347 20.2 101970 71
2005-06-23 07:05:42 51°18.758 2°48.062 5.7 349 20.2 101970 71
2005-06-23 07:05:46 51°18.765 2°48.035 5.8 348 20.2 101970 71
2005-06-23 07:05:52 51°18.774 2°48 5.6 347 20.2 101970 71
2005-06-23 07:05:57 51°18.782 2°47.97 5.9 347 20.2 101960 71
2005-06-23 07:06:02 51°18.789 2°47.943 5.5 346 20.2 101960 71
2005-06-23 07:06:07 51°18.798 2°47.911 5.7 345 20.2 101960 71
2005-06-23 07:06:12 51°18.805 2°47.885 5.8 346 20.2 101960 71
2005-06-23 07:06:17 51°18.814 2°47.852 5.7 347 20.2 101970 71
2005-06-23 07:06:22 51°18.822 2°47.823 5.6 347 20.2 101970 71
2005-06-23 07:06:27 51°18.83 2°47.793 5.7 347 20.2 101960 71
2005-06-23 07:06:32 51°18.838 2°47.764 5.9 348 20.2 101960 71
2005-06-23 07:06:37 51°18.846 2°47.734 5.8 348 20.2 101960 71
2005-06-23 07:06:42 51°18.853 2°47.708 5.8 348 20.2 101960 71
2005-06-23 07:06:47 51°18.862 2°47.675 5.7 348 20.2 101960 71
2005-06-23 07:06:51 51°18.868 2°47.651 5.5 346 20.2 101960 71
2005-06-23 07:06:57 51°18.877 2°47.616 5.9 347 20.2 101960 71
2005-06-23 07:07:02 51°18.884 2°47.589 5.9 346 20.2 101960 71
2005-06-23 07:07:07 51°18.892 2°47.557 5.9 346 20.2 101960 71
2005-06-23 07:07:12 51°18.899 2°47.529 5.8 347 20.2 101960 71
2005-06-23 07:07:17 51°18.908 2°47.497 5.7 346 20.2 101960 71
2005-06-23 07:07:22 51°18.915 2°47.471 5.8 347 20.2 101960 71
2005-06-23 07:07:27 51°18.924 2°47.438 5.7 346 20.2 101960 71
2005-06-23 07:07:32 51°18.932 2°47.409 5.9 346 20.2 101960 71
2005-06-23 07:07:37 51°18.94 2°47.38 5.7 346 20.1 101960 71
2005-06-23 07:07:42 51°18.947 2°47.354 5.7 346 20.1 101960 71
2005-06-23 07:07:47 51°18.955 2°47.325 5.8 346 20.2 101970 71
2005-06-23 07:07:52 51°18.963 2°47.295 6.1 346 20.2 101970 71
2005-06-23 07:07:57 51°18.971 2°47.266 5.8 346 20.1 101960 71
2005-06-23 07:08:02 51°18.979 2°47.234 5.8 346 20.1 101960 71
2005-06-23 07:08:06 51°18.986 2°47.211 5.9 347 20.1 101960 71
2005-06-23 07:08:12 51°18.996 2°47.175 5.9 348 20.1 101960 71
2005-06-23 07:08:17 51°19.004 2°47.147 5.6 347 20.1 101960 71
2005-06-23 07:08:22 51°19.011 2°47.12 6 347 20.1 101960 71
2005-06-23 07:08:27 51°19.02 2°47.088 5.7 347 20.1 101970 71
2005-06-23 07:08:32 51°19.028 2°47.058 5.8 348 20.1 101970 71
2005-06-23 07:08:37 51°19.035 2°47.029 5.9 346 20.1 101960 71
2005-06-23 07:08:42 51°19.042 2°47.002 5.6 347 20.1 101960 71
2005-06-23 07:08:47 51°19.051 2°46.97 6 347 20.1 101960 71
2005-06-23 07:08:51 51°19.057 2°46.946 5.7 346 20.1 101960 71
2005-06-23 07:08:57 51°19.066 2°46.914 5.6 346 20.1 101960 71
2005-06-23 07:09:02 51°19.074 2°46.881 5.8 347 20.1 101960 71
2005-06-23 07:09:07 51°19.082 2°46.851 5.6 347 20 101960 71
2005-06-23 07:09:12 51°19.09 2°46.822 5.8 347 20 101960 71
2005-06-23 07:09:17 51°19.098 2°46.792 5.9 348 20.1 101960 72
2005-06-23 07:09:22 51°19.105 2°46.765 5.6 348 20.1 101960 72
2005-06-23 07:09:27 51°19.114 2°46.733 5.5 347 20 101960 72
2005-06-23 07:09:32 51°19.122 2°46.704 5.5 346 20 101960 72
2005-06-23 07:09:37 51°19.13 2°46.674 6 346 20 101960 71
2005-06-23 07:09:42 51°19.137 2°46.647 5.6 347 20 101960 71
2005-06-23 07:09:47 51°19.146 2°46.615 5.9 346 20 101960 71
2005-06-23 07:09:52 51°19.154 2°46.585 5.5 347 20 101960 71
2005-06-23 07:09:57 51°19.162 2°46.555 5.7 346 20 101960 71
2005-06-23 07:10:02 51°19.169 2°46.529 5.8 346 20 101960 71
2005-06-23 07:10:06 51°19.176 2°46.502 5.6 345 20 101960 71
2005-06-23 07:10:12 51°19.185 2°46.469 5.6 347 20 101960 71
2005-06-23 07:10:17 51°19.193 2°46.437 6 346 20 101960 71
2005-06-23 07:10:22 51°19.201 2°46.407 5.6 347 20 101960 71
2005-06-23 07:10:26 51°19.207 2°46.387 5.6 346 20 101960 71
2005-06-23 07:10:32 51°19.218 2°46.348 5.7 346 20 101960 71
2005-06-23 07:10:37 51°19.226 2°46.318 5.8 347 20 101960 71
2005-06-23 07:10:42 51°19.233 2°46.292 5.7 347 20 101960 71
2005-06-23 07:10:46 51°19.239 2°46.268 5.6 346 20 101960 71
2005-06-23 07:10:52 51°19.249 2°46.232 5.8 346 20 101960 71
2005-06-23 07:10:57 51°19.257 2°46.199 5.7 346 20 101960 71
2005-06-23 07:11:02 51°19.265 2°46.169 5.8 345 20 101960 71
2005-06-23 07:11:07 51°19.272 2°46.139 5.6 345 20 101960 71
2005-06-23 07:11:12 51°19.28 2°46.109 5.7 346 20 101960 71
2005-06-23 07:11:17 51°19.287 2°46.082 5.8 346 20.1 101960 71
2005-06-23 07:11:22 51°19.295 2°46.052 5.7 346 20.1 101960 71
2005-06-23 07:11:27 51°19.303 2°46.023 5.8 346 20 101960 71
2005-06-23 07:11:31 51°19.31 2°45.996 5.7 345 20 101960 71
2005-06-23 07:11:37 51°19.32 2°45.96 5.5 345 20 101960 71
2005-06-23 07:11:42 51°19.328 2°45.93 5.7 345 20 101960 71
2005-06-23 07:11:47 51°19.336 2°45.9 5.7 345 20 101960 71
2005-06-23 07:11:52 51°19.344 2°45.871 5.8 346 20 101960 71
2005-06-23 07:11:57 51°19.353 2°45.842 5.7 345 20 101960 71
2005-06-23 07:12:02 51°19.36 2°45.815 5.7 346 20 101960 71
2005-06-23 07:12:07 51°19.369 2°45.783 5.6 346 20 101960 71
2005-06-23 07:12:11 51°19.376 2°45.759 5.8 346 20 101960 71
2005-06-23 07:12:17 51°19.385 2°45.723 5.8 346 20 101960 71
2005-06-23 07:12:22 51°19.393 2°45.696 5.7 346 20 101960 71
2005-06-23 07:12:26 51°19.399 2°45.673 5.6 346 20 101960 71
2005-06-23 07:12:32 51°19.41 2°45.634 5.8 346 20 101960 71
2005-06-23 07:12:37 51°19.418 2°45.605 5.7 346 20 101960 71
2005-06-23 07:12:42 51°19.426 2°45.578 5.7 346 20 101960 71
2005-06-23 07:12:46 51°19.432 2°45.554 5.8 346 20 101960 72
2005-06-23 07:12:52 51°19.442 2°45.519 5.6 345 20 101960 72
2005-06-23 07:12:57 51°19.451 2°45.487 5.6 346 20 101960 72
2005-06-23 07:13:02 51°19.458 2°45.461 5.6 345 20 101960 72
2005-06-23 07:13:07 51°19.467 2°45.428 5.5 346 20 101960 72
2005-06-23 07:13:11 51°19.474 2°45.404 5.5 348 20 101960 72
2005-06-23 07:13:17 51°19.484 2°45.369 5.5 347 20 101960 72
2005-06-23 07:13:22 51°19.492 2°45.342 5.4 347 20 101960 72
2005-06-23 07:13:27 51°19.501 2°45.31 5.6 347 20 101960 72
2005-06-23 07:13:32 51°19.509 2°45.281 6 347 20 101960 72
2005-06-23 07:13:37 51°19.517 2°45.251 6 349 20 101960 72
2005-06-23 07:13:42 51°19.524 2°45.223 6 347 20 101960 72
2005-06-23 07:13:46 51°19.53 2°45.195 6.3 348 20 101960 72
2005-06-23 07:13:52 51°19.539 2°45.161 6.1 347 20 101960 72
2005-06-23 07:13:57 51°19.547 2°45.127 6.2 346 20 101960 72
2005-06-23 07:14:02 51°19.554 2°45.096 6.2 348 20 101960 72
2005-06-23 07:14:07 51°19.561 2°45.065 6.1 348 20 101960 72
2005-06-23 07:14:12 51°19.569 2°45.033 6 347 20 101960 72
2005-06-23 07:14:17 51°19.576 2°45.003 6.1 347 20 101960 72
2005-06-23 07:14:22 51°19.582 2°44.976 6.1 347 20 101960 72
2005-06-23 07:14:27 51°19.59 2°44.942 6.2 346 20 101960 72
2005-06-23 07:14:32 51°19.598 2°44.911 5.9 345 20 101960 72
2005-06-23 07:14:37 51°19.605 2°44.881 6.1 347 20 101960 72
2005-06-23 07:14:42 51°19.611 2°44.854 6.2 346 20 101960 72
2005-06-23 07:14:47 51°19.619 2°44.821 6 346 20 101960 72
2005-06-23 07:14:51 51°19.624 2°44.796 6.3 347 20 101960 72
2005-06-23 07:14:57 51°19.633 2°44.76 6.1 347 20 101960 72
2005-06-23 07:15:02 51°19.639 2°44.732 6.4 346 20 101960 72
2005-06-23 07:15:07 51°19.647 2°44.699 6.2 346 20 101960 72
2005-06-23 07:15:12 51°19.652 2°44.672 6.5 346 20 101960 72
2005-06-23 07:15:17 51°19.66 2°44.638 6.4 346 20 101960 72
2005-06-23 07:15:22 51°19.667 2°44.611 6.1 347 20 101960 72
2005-06-23 07:15:27 51°19.674 2°44.577 6.4 347 20 101960 72
2005-06-23 07:15:32 51°19.681 2°44.547 6 346 20 101960 72
2005-06-23 07:15:37 51°19.688 2°44.517 6.2 347 20 101960 72
2005-06-23 07:15:42 51°19.695 2°44.489 6.3 346 20 101960 72
2005-06-23 07:15:46 51°19.701 2°44.461 6.3 347 20 101960 72
2005-06-23 07:15:52 51°19.709 2°44.425 6.5 346 20 101960 72
2005-06-23 07:15:56 51°19.714 2°44.403 6.6 346 20 101960 72
2005-06-23 07:16:02 51°19.722 2°44.367 6.1 345 20 101960 72
2005-06-23 07:16:07 51°19.73 2°44.333 5.9 346 19.9 101960 72
2005-06-23 07:16:12 51°19.736 2°44.306 6.3 345 19.9 101960 72
2005-06-23 07:16:17 51°19.743 2°44.276 6.4 347 19.9 101960 72
2005-06-23 07:16:22 51°19.75 2°44.245 6.5 347 19.9 101960 72
2005-06-23 07:16:27 51°19.758 2°44.212 6.4 347 19.9 101960 72
2005-06-23 07:16:32 51°19.766 2°44.181 6.5 345 19.9 101960 72
2005-06-23 07:16:37 51°19.773 2°44.151 6.2 347 19.9 101960 72
2005-06-23 07:16:42 51°19.781 2°44.121 6.2 346 19.9 101960 72
2005-06-23 07:16:47 51°19.788 2°44.091 6.3 346 19.9 101960 72
2005-06-23 07:16:51 51°19.794 2°44.067 3.3 345 19.9 101960 72
2005-06-23 07:16:57 51°19.803 2°44.031 6.1 347 19.9 101960 72
2005-06-23 07:17:02 51°19.809 2°44.004 6.2 345 19.9 101960 72
2005-06-23 07:17:07 51°19.817 2°43.971 6.4 345 19.9 101960 72
2005-06-23 07:17:12 51°19.824 2°43.941 6.2 346 19.9 101960 72
2005-06-23 07:17:17 51°19.831 2°43.911 6.3 345 19.9 101960 72
2005-06-23 07:17:22 51°19.838 2°43.884 6.6 345 19.9 101960 72
2005-06-23 07:17:26 51°19.843 2°43.86 6.6 347 19.9 101960 72
2005-06-23 07:17:31 51°19.852 2°43.827 6.3 345 19.9 101960 72
2005-06-23 07:17:37 51°19.86 2°43.792 6.4 345 19.8 101960 72
2005-06-23 07:17:42 51°19.867 2°43.765 6.3 346 19.8 101960 72
2005-06-23 07:17:46 51°19.873 2°43.741 6.2 346 19.8 101960 72
2005-06-23 07:17:52 51°19.882 2°43.705 6.2 345 19.8 101960 72
2005-06-23 07:17:57 51°19.89 2°43.672 6.5 346 19.8 101960 72
2005-06-23 07:18:02 51°19.897 2°43.646 6.5 346 19.8 101960 72
2005-06-23 07:18:07 51°19.905 2°43.613 6.2 345 19.8 101960 72
2005-06-23 07:18:11 51°19.911 2°43.589 6 345 19.8 101960 72
2005-06-23 07:18:17 51°19.92 2°43.553 6.5 346 19.8 101960 73
2005-06-23 07:18:22 51°19.927 2°43.526 6.2 346 19.8 101960 73
2005-06-23 07:18:27 51°19.935 2°43.493 6.6 345 19.8 101960 73
2005-06-23 07:18:32 51°19.942 2°43.462 6.2 347 19.8 101960 73
2005-06-23 07:18:37 51°19.95 2°43.432 6.3 347 19.8 101960 73
2005-06-23 07:18:42 51°19.956 2°43.405 6 346 19.8 101960 73
2005-06-23 07:18:47 51°19.965 2°43.372 6.3 346 19.8 101960 73
2005-06-23 07:18:52 51°19.972 2°43.342 6.5 346 19.8 101960 73
2005-06-23 07:18:57 51°19.98 2°43.313 6.5 346 19.8 101960 73
2005-06-23 07:19:02 51°19.987 2°43.286 6.5 347 19.8 101960 73
2005-06-23 07:19:06 51°19.993 2°43.259 6.4 345 19.8 101960 73
2005-06-23 07:19:12 51°20.002 2°43.223 6.5 345 19.8 101960 73
2005-06-23 07:19:17 51°20.01 2°43.193 6.4 347 19.7 101960 73
2005-06-23 07:19:22 51°20.017 2°43.163 6.7 345 19.7 101960 73
2005-06-23 07:19:27 51°20.025 2°43.133 6.7 347 19.7 101960 73
2005-06-23 07:19:32 51°20.032 2°43.106 6.6 345 19.7 101960 73
2005-06-23 07:19:37 51°20.04 2°43.074 6.5 345 19.7 101960 73
2005-06-23 07:19:42 51°20.046 2°43.047 6.7 346 19.7 101960 73
2005-06-23 07:19:47 51°20.055 2°43.014 6.3 346 19.7 101960 73
2005-06-23 07:19:52 51°20.062 2°42.984 6.7 345 19.7 101960 73
2005-06-23 07:19:57 51°20.07 2°42.954 6.6 346 19.7 101960 73
2005-06-23 07:20:02 51°20.076 2°42.927 6.6 345 19.7 101960 73
2005-06-23 07:20:07 51°20.084 2°42.894 6.3 345 19.7 101960 73
2005-06-23 07:20:12 51°20.092 2°42.863 6.4 346 19.7 101960 73
2005-06-23 07:20:17 51°20.099 2°42.834 6.7 345 19.7 101960 73
2005-06-23 07:20:22 51°20.106 2°42.807 6.7 346 19.7 101960 73
2005-06-23 07:20:26 51°20.112 2°42.78 6.4 346 19.7 101960 74
2005-06-23 07:20:32 51°20.121 2°42.747 6.4 344 19.7 101960 74
2005-06-23 07:20:37 51°20.129 2°42.714 6.3 345 19.7 101960 74
2005-06-23 07:20:42 51°20.136 2°42.684 6.6 345 19.7 101960 74
2005-06-23 07:20:47 51°20.142 2°42.653 6.8 346 19.7 101960 74
2005-06-23 07:20:52 51°20.148 2°42.622 6.7 346 19.7 101960 74
2005-06-23 07:20:57 51°20.154 2°42.591 6.8 345 19.7 101960 74
2005-06-23 07:21:02 51°20.16 2°42.563 6.8 346 19.7 101960 74
2005-06-23 07:21:07 51°20.166 2°42.529 6.9 346 19.7 101960 74
2005-06-23 07:21:12 51°20.172 2°42.501 6.8 345 19.7 101960 74
2005-06-23 07:21:17 51°20.178 2°42.467 7.1 346 19.7 101950 74
2005-06-23 07:21:22 51°20.184 2°42.439 6.7 347 19.7 101950 74
2005-06-23 07:21:27 51°20.19 2°42.405 7.1 346 19.7 101960 73
2005-06-23 07:21:32 51°20.196 2°42.373 6.8 346 19.7 101960 73
2005-06-23 07:21:37 51°20.202 2°42.342 7 346 19.7 101950 73
2005-06-23 07:21:42 51°20.207 2°42.311 6.7 346 19.7 101950 73
2005-06-23 07:21:46 51°20.212 2°42.286 6.4 346 19.7 101960 73
2005-06-23 07:21:52 51°20.219 2°42.248 6.5 346 19.7 101960 73
2005-06-23 07:21:57 51°20.225 2°42.217 7.2 346 19.7 101960 73
2005-06-23 07:22:02 51°20.231 2°42.19 6.8 345 19.7 101960 73
2005-06-23 07:22:07 51°20.237 2°42.155 6.9 346 19.7 101960 74
2005-06-23 07:22:12 51°20.243 2°42.127 6.7 345 19.7 101960 74
2005-06-23 07:22:17 51°20.25 2°42.092 6.7 345 19.7 101950 74
2005-06-23 07:22:22 51°20.256 2°42.061 7.1 344 19.7 101950 74
2005-06-23 07:22:27 51°20.262 2°42.03 6.8 346 19.7 101950 74
2005-06-23 07:22:32 51°20.268 2°41.998 6.9 346 19.7 101950 74
2005-06-23 07:22:37 51°20.274 2°41.97 6.4 346 19.7 101950 74
2005-06-23 07:22:42 51°20.279 2°41.939 6.7 345 19.7 101950 74
2005-06-23 07:22:46 51°20.284 2°41.913 6.8 346 19.7 101950 74
2005-06-23 07:22:51 51°20.291 2°41.879 6.7 346 19.7 101950 74
2005-06-23 07:22:57 51°20.298 2°41.841 6.4 346 19.7 101950 74
2005-06-23 07:23:02 51°20.304 2°41.813 6.6 346 19.7 101950 74
2005-06-23 07:23:07 51°20.31 2°41.778 6.8 346 19.6 101960 74
2005-06-23 07:23:12 51°20.317 2°41.747 6.7 346 19.6 101960 74
2005-06-23 07:23:17 51°20.322 2°41.719 6.5 347 19.7 101950 74
2005-06-23 07:23:22 51°20.328 2°41.688 6.7 346 19.7 101950 74
2005-06-23 07:23:27 51°20.335 2°41.653 6.5 347 19.6 101950 74
2005-06-23 07:23:32 51°20.341 2°41.625 6.5 347 19.6 101950 74
2005-06-23 07:23:37 51°20.348 2°41.59 6.7 347 19.6 101950 74
2005-06-23 07:23:42 51°20.354 2°41.562 6.9 348 19.6 101950 74
2005-06-23 07:23:47 51°20.36 2°41.531 6.4 347 19.6 101950 74
2005-06-23 07:23:52 51°20.367 2°41.497 6.3 346 19.6 101950 74
2005-06-23 07:23:57 51°20.373 2°41.466 6.5 346 19.6 101950 74
2005-06-23 07:24:02 51°20.379 2°41.438 6.6 349 19.6 101950 74
2005-06-23 07:24:07 51°20.385 2°41.405 6.6 346 19.6 101960 74
2005-06-23 07:24:12 51°20.389 2°41.376 6.4 346 19.6 101960 74
2005-06-23 07:24:17 51°20.394 2°41.342 6.4 346 19.6 101950 74
2005-06-23 07:24:22 51°20.397 2°41.31 6.8 347 19.6 101950 74
2005-06-23 07:24:27 51°20.401 2°41.278 6.5 344 19.6 101960 74
2005-06-23 07:24:32 51°20.405 2°41.246 6.5 346 19.6 101960 74
2005-06-23 07:24:37 51°20.407 2°41.218 6.3 346 19.6 101960 74
2005-06-23 07:24:42 51°20.411 2°41.182 6.3 345 19.6 101960 74
2005-06-23 07:24:47 51°20.414 2°41.151 6.6 344 19.6 101960 74
2005-06-23 07:24:52 51°20.417 2°41.118 6.8 346 19.6 101960 74
2005-06-23 07:24:57 51°20.42 2°41.087 6.6 346 19.6 101950 74
2005-06-23 07:25:02 51°20.423 2°41.058 7 348 19.6 101950 74
2005-06-23 07:25:07 51°20.426 2°41.023 6.7 346 19.6 101950 74
2005-06-23 07:25:12 51°20.429 2°40.994 6.6 347 19.6 101950 74
2005-06-23 07:25:17 51°20.432 2°40.962 6.5 345 19.6 101950 74
2005-06-23 07:25:22 51°20.435 2°40.927 6.7 348 19.6 101950 74
2005-06-23 07:25:27 51°20.438 2°40.895 6.4 346 19.6 101960 75
2005-06-23 07:25:32 51°20.441 2°40.863 6.7 344 19.6 101960 75
2005-06-23 07:25:37 51°20.444 2°40.831 6.7 346 19.6 101950 75
2005-06-23 07:25:42 51°20.447 2°40.799 6.4 345 19.6 101950 75
2005-06-23 07:25:47 51°20.45 2°40.767 6.5 345 19.6 101950 75
2005-06-23 07:25:52 51°20.453 2°40.735 6.4 344 19.6 101950 75
2005-06-23 07:25:57 51°20.456 2°40.703 6.7 346 19.6 101950 75
2005-06-23 07:26:02 51°20.459 2°40.674 6.3 346 19.6 101950 75
2005-06-23 07:26:07 51°20.462 2°40.639 6.4 347 19.6 101950 75
2005-06-23 07:26:11 51°20.464 2°40.614 6.4 345 19.6 101950 75
2005-06-23 07:26:17 51°20.468 2°40.575 6.5 345 19.6 101950 75
2005-06-23 07:26:22 51°20.47 2°40.547 6.2 346 19.6 101950 75
2005-06-23 07:26:26 51°20.473 2°40.518 6.2 344 19.6 101960 75
2005-06-23 07:26:32 51°20.477 2°40.483 6.4 346 19.6 101960 75
2005-06-23 07:26:37 51°20.48 2°40.448 6.6 346 19.6 101960 75
2005-06-23 07:26:42 51°20.483 2°40.419 6.5 346 19.6 101960 75
2005-06-23 07:26:47 51°20.487 2°40.384 6.4 345 19.6 101960 75
2005-06-23 07:26:51 51°20.489 2°40.358 6.4 346 19.6 101960 75
2005-06-23 07:26:57 51°20.492 2°40.32 6.4 346 19.6 101960 75
2005-06-23 07:27:02 51°20.495 2°40.291 6.6 346 19.6 101960 75
2005-06-23 07:27:06 51°20.497 2°40.262 6.8 346 19.6 101960 75
2005-06-23 07:27:12 51°20.501 2°40.223 6.5 347 19.6 101960 75
2005-06-23 07:27:17 51°20.503 2°40.194 6.7 346 19.6 101960 75
2005-06-23 07:27:22 51°20.507 2°40.158 6.5 346 19.6 101960 75
2005-06-23 07:27:27 51°20.51 2°40.126 6.4 346 19.6 101950 75
2005-06-23 07:27:32 51°20.513 2°40.094 6.4 346 19.6 101950 75
2005-06-23 07:27:37 51°20.516 2°40.065 6.2 346 19.6 101950 75
2005-06-23 07:27:42 51°20.519 2°40.029 6.6 346 19.6 101950 75
2005-06-23 07:27:47 51°20.522 2°39.997 6.5 346 19.6 101950 75
2005-06-23 07:27:52 51°20.525 2°39.967 6.6 346 19.6 101950 75
2005-06-23 07:27:57 51°20.528 2°39.932 6.3 346 19.6 101950 75
2005-06-23 07:28:02 51°20.531 2°39.902 6.5 346 19.6 101950 75
2005-06-23 07:28:07 51°20.534 2°39.866 6.5 346 19.6 101950 75
2005-06-23 07:28:11 51°20.537 2°39.84 6.3 345 19.6 101950 75
2005-06-23 07:28:17 51°20.54 2°39.801 6.5 346 19.6 101960 75
2005-06-23 07:28:22 51°20.543 2°39.772 6.5 344 19.6 101960 75
2005-06-23 07:28:26 51°20.546 2°39.746 6.1 345 19.6 101950 75
2005-06-23 07:28:31 51°20.549 2°39.71 6.2 346 19.6 101950 75
2005-06-23 07:28:37 51°20.553 2°39.671 6.5 345 19.6 101950 75
2005-06-23 07:28:42 51°20.556 2°39.642 6.4 345 19.6 101950 75
2005-06-23 07:28:47 51°20.559 2°39.606 6.4 346 19.6 101950 75
2005-06-23 07:28:52 51°20.562 2°39.574 6.4 345 19.6 101950 75
2005-06-23 07:28:57 51°20.565 2°39.541 6.1 346 19.6 101950 75
2005-06-23 07:29:02 51°20.568 2°39.509 6.3 346 19.6 101950 75
2005-06-23 07:29:07 51°20.572 2°39.477 6.3 345 19.6 101950 75
2005-06-23 07:29:12 51°20.575 2°39.447 6.2 345 19.6 101950 75
2005-06-23 07:29:17 51°20.579 2°39.411 6 345 19.6 101950 75
2005-06-23 07:29:22 51°20.582 2°39.379 6.3 345 19.6 101950 75
2005-06-23 07:29:26 51°20.584 2°39.356 6.1 344 19.6 101950 75
2005-06-23 07:29:31 51°20.587 2°39.324 6.2 345 19.6 101950 75
2005-06-23 07:29:37 51°20.591 2°39.281 6.1 345 19.6 101950 75
2005-06-23 07:29:42 51°20.593 2°39.252 6.3 345 19.6 101950 75
2005-06-23 07:29:47 51°20.596 2°39.216 6.1 345 19.6 101950 75
2005-06-23 07:29:51 51°20.599 2°39.19 6 345 19.6 101950 75
2005-06-23 07:29:57 51°20.602 2°39.155 6.3 345 19.6 101950 75
2005-06-23 07:30:02 51°20.605 2°39.122 6.3 344 19.6 101950 75
2005-06-23 07:30:07 51°20.608 2°39.086 6 346 19.6 101950 74
2005-06-23 07:30:12 51°20.611 2°39.053 6.1 346 19.6 101950 74
2005-06-23 07:30:17 51°20.614 2°39.025 6 345 19.6 101950 74
2005-06-23 07:30:22 51°20.617 2°38.992 6.4 345 19.6 101950 74
2005-06-23 07:30:26 51°20.619 2°38.966 6.2 345 19.7 101950 74
2005-06-23 07:30:32 51°20.623 2°38.924 6.3 346 19.7 101950 74
2005-06-23 07:30:37 51°20.625 2°38.895 5.9 346 19.7 101950 74
2005-06-23 07:30:42 51°20.628 2°38.862 6.2 345 19.7 101950 74
2005-06-23 07:30:46 51°20.631 2°38.833 6.2 344 19.7 101950 74
2005-06-23 07:30:51 51°20.633 2°38.804 6 345 19.7 101950 74
2005-06-23 07:30:57 51°20.637 2°38.762 6.3 343 19.7 101950 74
2005-06-23 07:31:02 51°20.639 2°38.732 6.2 343 19.7 101950 74
2005-06-23 07:31:07 51°20.642 2°38.697 5.8 345 19.6 101950 74
2005-06-23 07:31:11 51°20.644 2°38.671 6.1 344 19.6 101950 74
2005-06-23 07:31:17 51°20.647 2°38.632 6.2 344 19.6 101950 74
2005-06-23 07:31:22 51°20.649 2°38.602 6 344 19.6 101950 74
2005-06-23 07:31:27 51°20.652 2°38.57 6 345 19.6 101950 74
2005-06-23 07:31:32 51°20.654 2°38.537 6.2 344 19.6 101950 74
2005-06-23 07:31:37 51°20.657 2°38.502 6.2 345 19.6 101950 74
2005-06-23 07:31:42 51°20.659 2°38.469 6.3 344 19.6 101950 74
2005-06-23 07:31:47 51°20.662 2°38.436 6.2 345 19.6 101950 74
2005-06-23 07:31:52 51°20.664 2°38.407 6.1 345 19.6 101950 74
2005-06-23 07:31:57 51°20.667 2°38.371 6.3 346 19.7 101950 74
2005-06-23 07:32:02 51°20.669 2°38.342 6.5 346 19.7 101950 74
2005-06-23 07:32:06 51°20.671 2°38.316 6.1 347 19.6 101950 74
2005-06-23 07:32:12 51°20.674 2°38.276 6.3 346 19.6 101950 74
2005-06-23 07:32:17 51°20.677 2°38.24 6.4 346 19.6 101950 74
2005-06-23 07:32:22 51°20.68 2°38.207 6.4 346 19.6 101950 74
2005-06-23 07:32:27 51°20.682 2°38.175 6.4 346 19.6 101950 74
2005-06-23 07:32:32 51°20.685 2°38.142 6.3 347 19.6 101950 74
2005-06-23 07:32:37 51°20.687 2°38.109 6.3 345 19.6 101940 74
2005-06-23 07:32:42 51°20.69 2°38.08 6.3 346 19.6 101940 74
2005-06-23 07:32:47 51°20.692 2°38.043 6.1 345 19.6 101950 74
2005-06-23 07:32:52 51°20.695 2°38.014 6 346 19.6 101950 74
2005-06-23 07:32:57 51°20.697 2°37.978 6.3 345 19.6 101950 74
2005-06-23 07:33:02 51°20.7 2°37.945 6 346 19.6 101950 74
2005-06-23 07:33:06 51°20.702 2°37.922 6.1 347 19.6 101950 74
2005-06-23 07:33:12 51°20.705 2°37.878 6.2 347 19.6 101950 74
2005-06-23 07:33:17 51°20.708 2°37.846 6 346 19.6 101940 74
2005-06-23 07:33:22 51°20.71 2°37.816 6.2 346 19.6 101940 74
2005-06-23 07:33:27 51°20.713 2°37.779 6.3 348 19.6 101950 74
2005-06-23 07:33:32 51°20.715 2°37.749 6.2 347 19.6 101950 74
2005-06-23 07:33:37 51°20.718 2°37.713 6.2 348 19.6 101950 74
2005-06-23 07:33:42 51°20.72 2°37.68 6.3 347 19.6 101950 74
2005-06-23 07:33:47 51°20.723 2°37.647 6.3 347 19.6 101950 74
2005-06-23 07:33:52 51°20.726 2°37.613 6.2 346 19.6 101950 74
2005-06-23 07:33:57 51°20.729 2°37.58 6.4 348 19.5 101950 74
2005-06-23 07:34:02 51°20.731 2°37.547 6.6 346 19.5 101950 74
2005-06-23 07:34:07 51°20.734 2°37.514 6.3 349 19.6 101950 74
2005-06-23 07:34:12 51°20.736 2°37.481 6.5 347 19.6 101950 74
2005-06-23 07:34:17 51°20.739 2°37.448 6.4 347 19.5 101950 74
2005-06-23 07:34:22 51°20.742 2°37.418 6.5 347 19.5 101950 74
2005-06-23 07:34:27 51°20.745 2°37.381 6.4 347 19.5 101950 74
2005-06-23 07:34:32 51°20.747 2°37.351 6.6 346 19.5 101950 74
2005-06-23 07:34:37 51°20.75 2°37.315 6.6 347 19.5 101950 74
2005-06-23 07:34:42 51°20.753 2°37.285 6.6 348 19.5 101950 74
2005-06-23 07:34:47 51°20.756 2°37.248 6.7 346 19.5 101950 74
2005-06-23 07:34:52 51°20.758 2°37.215 6.7 347 19.5 101950 74
2005-06-23 07:34:57 51°20.76 2°37.185 6.4 346 19.5 101950 74
2005-06-23 07:35:02 51°20.763 2°37.152 6.5 346 19.5 101950 74
2005-06-23 07:35:07 51°20.765 2°37.118 6.7 346 19.5 101950 74
2005-06-23 07:35:12 51°20.768 2°37.085 6.6 345 19.5 101950 74
2005-06-23 07:35:17 51°20.77 2°37.048 6.4 345 19.5 101950 74
2005-06-23 07:35:22 51°20.772 2°37.018 6.5 346 19.5 101950 74
2005-06-23 07:35:26 51°20.774 2°36.992 6.6 345 19.5 101950 74
2005-06-23 07:35:33 51°20.777 2°36.945 6.5 345 19.5 101950 74
2005-06-23 07:35:37 51°20.779 2°36.915 6.6 346 19.5 101940 74
2005-06-23 07:35:42 51°20.782 2°36.882 6.8 345 19.5 101940 74
2005-06-23 07:35:47 51°20.785 2°36.849 6.4 344 19.5 101950 74
2005-06-23 07:35:52 51°20.787 2°36.819 6.4 345 19.5 101950 74
2005-06-23 07:35:58 51°20.79 2°36.779 6.5 345 19.5 101950 74
2005-06-23 07:36:02 51°20.792 2°36.752 6.5 346 19.5 101950 74
2005-06-23 07:36:07 51°20.794 2°36.716 6.6 344 19.5 101950 74
2005-06-23 07:36:12 51°20.797 2°36.682 6.5 345 19.5 101950 74
2005-06-23 07:36:17 51°20.799 2°36.653 6.6 345 19.5 101950 74
2005-06-23 07:36:22 51°20.801 2°36.616 6.4 345 19.5 101950 74
2005-06-23 07:36:27 51°20.803 2°36.583 6.5 346 19.5 101950 74
2005-06-23 07:36:32 51°20.805 2°36.553 6.5 345 19.5 101950 74
2005-06-23 07:36:37 51°20.808 2°36.517 6.3 346 19.5 101950 74
2005-06-23 07:36:42 51°20.81 2°36.487 6.6 346 19.5 101950 74
2005-06-23 07:36:47 51°20.813 2°36.451 6.3 345 19.5 101950 74
2005-06-23 07:36:52 51°20.816 2°36.417 6.5 345 19.5 101950 74
2005-06-23 07:36:57 51°20.818 2°36.384 6.6 344 19.5 101950 74
2005-06-23 07:37:02 51°20.822 2°36.351 6.3 343 19.5 101950 74
2005-06-23 07:37:07 51°20.825 2°36.319 6 345 19.5 101950 74
2005-06-23 07:37:12 51°20.828 2°36.285 6.5 344 19.5 101950 74
2005-06-23 07:37:17 51°20.832 2°36.253 6.4 346 19.5 101950 74
2005-06-23 07:37:22 51°20.835 2°36.22 6.3 345 19.5 101950 74
2005-06-23 07:37:26 51°20.838 2°36.197 6.2 346 19.5 101940 74
2005-06-23 07:37:31 51°20.842 2°36.164 6.4 346 19.5 101940 74
2005-06-23 07:37:37 51°20.846 2°36.122 6.3 346 19.5 101950 74
2005-06-23 07:37:42 51°20.85 2°36.092 6.2 346 19.5 101950 74
2005-06-23 07:37:47 51°20.854 2°36.056 6.4 346 19.5 101950 74
2005-06-23 07:37:52 51°20.858 2°36.026 6.1 346 19.5 101950 74
2005-06-23 07:37:57 51°20.862 2°35.991 6.2 346 19.5 101950 74
2005-06-23 07:38:02 51°20.865 2°35.961 6.2 345 19.5 101950 74
2005-06-23 07:38:07 51°20.87 2°35.925 6.4 345 19.5 101950 74
2005-06-23 07:38:12 51°20.873 2°35.895 6.2 346 19.5 101950 74
2005-06-23 07:38:17 51°20.878 2°35.86 6.2 345 19.5 101950 73
2005-06-23 07:38:22 51°20.881 2°35.831 6.2 345 19.5 101950 73
2005-06-23 07:38:27 51°20.885 2°35.795 6.3 346 19.5 101950 73
2005-06-23 07:38:31 51°20.888 2°35.769 6.1 345 19.5 101950 73
2005-06-23 07:38:37 51°20.892 2°35.729 6.3 346 19.5 101950 74
2005-06-23 07:38:42 51°20.895 2°35.696 6.5 344 19.5 101950 74
2005-06-23 07:38:47 51°20.899 2°35.664 6.4 346 19.5 101950 74
2005-06-23 07:38:51 51°20.902 2°35.638 6.3 344 19.5 101950 74
2005-06-23 07:38:57 51°20.906 2°35.599 6.5 345 19.5 101950 74
2005-06-23 07:39:02 51°20.909 2°35.569 6.2 345 19.5 101950 74
2005-06-23 07:39:07 51°20.913 2°35.534 6.3 346 19.5 101950 74
2005-06-23 07:39:12 51°20.917 2°35.501 6.5 345 19.5 101950 74
2005-06-23 07:39:17 51°20.92 2°35.468 6.3 344 19.5 101950 74
2005-06-23 07:39:22 51°20.923 2°35.435 6.8 345 19.5 101950 74
2005-06-23 07:39:27 51°20.927 2°35.403 6.3 343 19.5 101950 74
2005-06-23 07:39:32 51°20.93 2°35.373 6.4 345 19.5 101950 74
2005-06-23 07:39:37 51°20.934 2°35.338 6.5 343 19.5 101950 74
2005-06-23 07:39:42 51°20.937 2°35.305 6.4 344 19.5 101950 74
2005-06-23 07:39:46 51°20.94 2°35.283 6.2 345 19.5 101950 74
2005-06-23 07:39:51 51°20.944 2°35.25 6.5 346 19.5 101950 74
2005-06-23 07:39:57 51°20.948 2°35.208 6.3 345 19.5 101950 74
2005-06-23 07:40:02 51°20.951 2°35.179 6.3 345 19.5 101950 74
2005-06-23 07:40:07 51°20.955 2°35.143 6.4 344 19.5 101950 74
2005-06-23 07:40:12 51°20.959 2°35.11 6.5 345 19.5 101950 74
2005-06-23 07:40:17 51°20.962 2°35.078 6.4 343 19.5 101950 74
2005-06-23 07:40:22 51°20.966 2°35.045 6.5 344 19.5 101950 74
2005-06-23 07:40:27 51°20.969 2°35.013 6.5 345 19.5 101950 74
2005-06-23 07:40:32 51°20.973 2°34.98 6.5 345 19.5 101950 74
2005-06-23 07:40:37 51°20.976 2°34.948 6.3 345 19.5 101950 74
2005-06-23 07:40:42 51°20.98 2°34.918 6.5 345 19.5 101950 74
2005-06-23 07:40:47 51°20.984 2°34.882 6.8 344 19.5 101950 73
2005-06-23 07:40:52 51°20.987 2°34.853 6.6 344 19.5 101950 73
2005-06-23 07:40:57 51°20.991 2°34.817 6.2 345 19.5 101950 74
2005-06-23 07:41:02 51°20.994 2°34.784 6.6 344 19.5 101950 74
2005-06-23 07:41:07 51°20.998 2°34.751 6.3 345 19.5 101950 73
2005-06-23 07:41:12 51°21.001 2°34.718 6.3 344 19.5 101950 73
2005-06-23 07:41:17 51°21.005 2°34.685 6.8 345 19.5 101950 73
2005-06-23 07:41:22 51°21.008 2°34.652 6.5 344 19.5 101950 73
2005-06-23 07:41:27 51°21.012 2°34.619 6.8 344 19.5 101950 73
2005-06-23 07:41:32 51°21.015 2°34.586 6.7 344 19.5 101950 73
2005-06-23 07:41:37 51°21.018 2°34.557 6.6 344 19.5 101950 73
2005-06-23 07:41:42 51°21.021 2°34.524 6.5 343 19.5 101950 73
2005-06-23 07:41:47 51°21.025 2°34.488 6.3 344 19.5 101950 73
2005-06-23 07:41:52 51°21.028 2°34.455 6.3 343 19.5 101950 73
2005-06-23 07:41:57 51°21.032 2°34.422 6.7 343 19.5 101950 73
2005-06-23 07:42:02 51°21.035 2°34.392 6.5 343 19.5 101950 73
2005-06-23 07:42:07 51°21.039 2°34.356 6.7 342 19.5 101950 73
2005-06-23 07:42:12 51°21.042 2°34.323 6.5 342 19.5 101950 73
2005-06-23 07:42:17 51°21.046 2°34.29 6.6 344 19.5 101950 73
2005-06-23 07:42:22 51°21.05 2°34.257 6.3 339 19.5 101950 73
2005-06-23 07:42:27 51°21.055 2°34.226 6 345 19.5 101950 73
2005-06-23 07:42:32 51°21.062 2°34.195 5.9 341 19.5 101950 73
2005-06-23 07:42:37 51°21.07 2°34.165 5.7 345 19.5 101950 73
2005-06-23 07:42:42 51°21.078 2°34.139 5.7 342 19.5 101950 73
2005-06-23 07:42:47 51°21.089 2°34.109 5.5 346 19.5 101950 73
2005-06-23 07:42:51 51°21.097 2°34.087 5.5 343 19.5 101950 73
2005-06-23 07:42:57 51°21.109 2°34.055 5.2 346 19.5 101950 73
2005-06-23 07:43:02 51°21.122 2°34.032 5.1 346 19.5 101950 73
2005-06-23 07:43:06 51°21.132 2°34.013 4.9 350 19.5 101950 73
2005-06-23 07:43:11 51°21.146 2°33.993 4.5 349 19.5 101950 73
2005-06-23 07:43:17 51°21.163 2°33.968 4.7 351 19.5 101950 73
2005-06-23 07:43:22 51°21.177 2°33.949 4.7 353 19.5 101950 73
2005-06-23 07:43:27 51°21.192 2°33.929 4.8 351 19.5 101950 73
2005-06-23 07:43:32 51°21.206 2°33.908 4.8 353 19.5 101950 73
2005-06-23 07:43:37 51°21.22 2°33.887 5 351 19.5 101950 73
2005-06-23 07:43:42 51°21.232 2°33.868 5.1 353 19.5 101950 73
2005-06-23 07:43:47 51°21.247 2°33.844 5 351 19.5 101950 73
2005-06-23 07:43:52 51°21.261 2°33.822 4.8 351 19.5 101950 73
2005-06-23 07:43:57 51°21.275 2°33.8 4.9 351 19.5 101950 73
2005-06-23 07:44:02 51°21.287 2°33.78 5.2 353 19.5 101950 73
2005-06-23 07:44:07 51°21.302 2°33.756 5 351 19.5 101950 73
2005-06-23 07:44:12 51°21.315 2°33.735 4.7 352 19.5 101950 73
2005-06-23 07:44:17 51°21.328 2°33.714 4.7 350 19.5 101950 73
2005-06-23 07:44:22 51°21.344 2°33.689 5 351 19.5 101950 73
2005-06-23 07:44:27 51°21.357 2°33.667 5 351 19.5 101950 73
2005-06-23 07:44:32 51°21.371 2°33.645 5 353 19.5 101950 73
2005-06-23 07:44:37 51°21.385 2°33.623 5 352 19.5 101950 73
2005-06-23 07:44:42 51°21.399 2°33.601 4.9 353 19.5 101950 73
2005-06-23 07:44:47 51°21.413 2°33.579 5 352 19.5 101950 73
2005-06-23 07:44:51 51°21.424 2°33.562 4.9 352 19.5 101950 73
2005-06-23 07:44:58 51°21.442 2°33.533 4.8 352 19.5 101950 73
2005-06-23 07:45:02 51°21.453 2°33.516 4.8 353 19.5 101950 73
2005-06-23 07:45:07 51°21.468 2°33.492 4.8 352 19.5 101950 73
2005-06-23 07:45:11 51°21.479 2°33.474 4.9 352 19.5 101950 73
2005-06-23 07:45:17 51°21.496 2°33.448 5 353 19.5 101950 73
2005-06-23 07:45:22 51°21.509 2°33.426 4.8 354 19.5 101950 73
2005-06-23 07:45:27 51°21.523 2°33.405 4.9 353 19.5 101950 73
2005-06-23 07:45:31 51°21.534 2°33.388 4.7 352 19.5 101950 73
2005-06-23 07:45:37 51°21.551 2°33.362 4.7 352 19.5 101950 73
2005-06-23 07:45:42 51°21.565 2°33.341 5 353 19.5 101950 73
2005-06-23 07:45:47 51°21.578 2°33.319 5.1 354 19.5 101950 73
2005-06-23 07:45:52 51°21.592 2°33.298 4.8 354 19.5 101950 73
2005-06-23 07:45:57 51°21.606 2°33.276 4.9 353 19.5 101950 73
2005-06-23 07:46:02 51°21.619 2°33.254 4.9 353 19.5 101950 73
2005-06-23 07:46:07 51°21.633 2°33.232 4.9 353 19.5 101950 73
2005-06-23 07:46:12 51°21.646 2°33.213 4.8 355 19.5 101950 73
2005-06-23 07:46:17 51°21.661 2°33.19 4.9 352 19.4 101950 73
2005-06-23 07:46:22 51°21.675 2°33.168 4.8 354 19.4 101950 73
2005-06-23 07:46:27 51°21.689 2°33.147 4.9 352 19.5 101950 73
2005-06-23 07:46:32 51°21.703 2°33.126 4.9 354 19.5 101950 73
2005-06-23 07:46:37 51°21.717 2°33.105 5 354 19.4 101950 73
2005-06-23 07:46:42 51°21.731 2°33.084 4.8 353 19.4 101950 73
2005-06-23 07:46:47 51°21.744 2°33.063 4.8 353 19.4 101950 73
2005-06-23 07:46:52 51°21.758 2°33.041 4.9 354 19.4 101950 73
2005-06-23 07:46:57 51°21.772 2°33.02 4.9 354 19.4 101950 73
2005-06-23 07:47:02 51°21.786 2°32.999 4.9 353 19.4 101950 73
2005-06-23 07:47:07 51°21.799 2°32.977 4.9 352 19.4 101950 73
2005-06-23 07:47:11 51°21.81 2°32.96 4.7 353 19.4 101950 73
2005-06-23 07:47:17 51°21.827 2°32.935 4.9 352 19.4 101950 73
2005-06-23 07:47:22 51°21.84 2°32.916 4.6 354 19.4 101950 73
2005-06-23 07:47:27 51°21.855 2°32.892 4.8 353 19.4 101950 73
2005-06-23 07:47:31 51°21.867 2°32.875 4.8 354 19.4 101950 73
2005-06-23 07:47:37 51°21.884 2°32.85 4.7 353 19.4 101950 73
2005-06-23 07:47:42 51°21.896 2°32.831 4.9 354 19.4 101950 73
2005-06-23 07:47:47 51°21.912 2°32.807 4.8 353 19.4 101950 73
2005-06-23 07:47:52 51°21.926 2°32.786 4.8 354 19.4 101950 73
2005-06-23 07:47:57 51°21.94 2°32.765 4.8 353 19.4 101950 73
2005-06-23 07:48:02 51°21.952 2°32.746 4.8 354 19.4 101950 73
2005-06-23 07:48:07 51°21.968 2°32.723 4.6 353 19.4 101950 73
2005-06-23 07:48:12 51°21.982 2°32.701 5 354 19.4 101950 73
2005-06-23 07:48:17 51°21.996 2°32.68 4.9 353 19.4 101950 73
2005-06-23 07:48:22 51°22.009 2°32.66 4.9 352 19.4 101950 73
2005-06-23 07:48:27 51°22.024 2°32.637 4.9 353 19.4 101950 73
2005-06-23 07:48:32 51°22.037 2°32.617 5 353 19.4 101950 73
2005-06-23 07:48:37 51°22.052 2°32.594 5 353 19.4 101950 73
2005-06-23 07:48:42 51°22.066 2°32.572 4.9 355 19.4 101950 73
2005-06-23 07:48:46 51°22.078 2°32.555 4.8 352 19.4 101950 73
2005-06-23 07:48:52 51°22.095 2°32.529 4.9 354 19.4 101950 73
2005-06-23 07:48:57 51°22.109 2°32.508 4.9 354 19.4 101950 73
2005-06-23 07:49:02 51°22.123 2°32.486 4.9 354 19.4 101950 73
2005-06-23 07:49:06 51°22.133 2°32.471 5 354 19.4 101950 73
2005-06-23 07:49:11 51°22.147 2°32.45 5 354 19.4 101950 73
2005-06-23 07:49:18 51°22.167 2°32.419 5.1 355 19.4 101950 73
2005-06-23 07:49:22 51°22.178 2°32.402 5 355 19.4 101950 73
2005-06-23 07:49:27 51°22.194 2°32.378 5.2 356 19.4 101950 73
2005-06-23 07:49:31 51°22.205 2°32.361 5 356 19.4 101950 73
2005-06-23 07:49:37 51°22.223 2°32.335 5.1 356 19.4 101950 73
2005-06-23 07:49:42 51°22.237 2°32.313 4.8 354 19.4 101950 73
2005-06-23 07:49:46 51°22.247 2°32.298 5 355 19.4 101950 73
2005-06-23 07:49:52 51°22.265 2°32.27 5 354 19.4 101950 73
2005-06-23 07:49:57 51°22.278 2°32.247 5.1 352 19.4 101950 73
2005-06-23 07:50:02 51°22.289 2°32.224 5.4 354 19.4 101950 73
2005-06-23 07:50:07 51°22.302 2°32.196 5.4 351 19.4 101950 73
2005-06-23 07:50:12 51°22.314 2°32.17 5.4 351 19.4 101950 73